Denver, CO

3:05 PM MST on December 04, 2016 (GMT -0700)
Denver International

Weather History for KDEN - February, 2013

Change the Weather History Date:

Saturday, February 9, 2013

  Actual Average Record
Temperature  
Mean Temperature 28 °F 31 °F  
Max Temperature 36 °F 45 °F 73 °F (1954)
Min Temperature 20 °F 18 °F -15 °F (2001)
Degree Days  
Heating Degree Days 37 34  
Month to date heating degree days 245 306  
Since 1 July heating degree days 3545 3837  
Cooling Degree Days 0 0  
Month to date cooling degree days 0 0  
Year to date cooling degree days 0 0  
Moisture  
Dew Point 19 °F    
Average Humidity 61    
Maximum Humidity 78    
Minimum Humidity 44    
Precipitation  
Precipitation T in 0.01 in 0.61 in (1898)
Month to date precipitation 0.01 0.11  
Year to date precipitation 0.32 0.52  
Snow  
Snow T in - - ()
Month to date snowfall T  
Since 1 July snowfall 17  
Snow Depth 0.00 in    
Sea Level Pressure  
Sea Level Pressure 29.59 in    
Wind  
Wind Speed 9 mph (NNW)    
Max Wind Speed 21 mph    
Max Gust Speed 25 mph    
Visibility 9 miles    
Events Snow    
T = Trace of Precipitation, MM = Missing Value Source: NWS Daily Summary

Daily Weather History Graph

Daily Weather History Graph

Search for Another Location

Airport or City:

Trip Planner

Search our weather history database for the weather conditions in past years. The results will help you decide how hot, cold, wet, or windy it might be!

Date:

Astronomy

Feb. 09, 2013 Rise Set
Actual Time 6:58 AM MST 5:28 PM MST
Civil Twilight 6:30 AM MST 5:56 PM MST
Nautical Twilight 5:58 AM MST 6:28 PM MST
Astronomical Twilight 5:26 AM MST 6:59 PM MST
Moon 6:11 AM MST (2/9) 5:13 PM MST (2/9)
Length of Visible Light 11h 26m
Length of Day
10h 29m
Waning Crescent, 0% of the Moon is Illuminated
Feb 9
Waning Crescent
Feb 10
New
Feb 17
First Quarter
Feb 25
Full
Mar 4
Last Quarter

Hourly Weather History & Observations

Time (MST) Temp. Windchill Dew Point Humidity Pressure Visibility Wind Dir Wind Speed Gust Speed Precip Events Conditions
12:53 AM 32.0 °F 24.8 °F 16.0 °F 52% 29.62 in 10.0 mi West 8.1 mph - N/A   Partly Cloudy
1:53 AM 32.0 °F 25.6 °F 17.1 °F 54% 29.61 in 10.0 mi WSW 6.9 mph - N/A   Clear
2:53 AM 28.9 °F 21.9 °F 10.9 °F 47% 29.60 in 10.0 mi North 6.9 mph - N/A   Clear
3:53 AM 25.0 °F 14.8 °F 12.9 °F 60% 29.62 in 10.0 mi North 10.4 mph - N/A   Clear
4:53 AM 21.0 °F - 12.9 °F 71% 29.68 in 10.0 mi Calm Calm - N/A   Clear
5:53 AM 21.0 °F 12.4 °F 12.9 °F 71% 29.72 in 10.0 mi WSW 6.9 mph - N/A   Clear
6:53 AM 21.0 °F 12.4 °F 12.0 °F 68% 29.71 in 10.0 mi West 6.9 mph - N/A   Partly Cloudy
7:53 AM 25.0 °F 18.1 °F 14.0 °F 63% 29.71 in 10.0 mi West 5.8 mph - N/A   Partly Cloudy
8:53 AM 28.0 °F 20.8 °F 17.1 °F 63% 29.68 in 10.0 mi NNW 6.9 mph - N/A   Partly Cloudy
9:53 AM 30.0 °F 24.1 °F 18.0 °F 61% 29.65 in 10.0 mi North 5.8 mph - N/A   Partly Cloudy
10:53 AM 32.0 °F 25.6 °F 18.0 °F 56% 29.62 in 10.0 mi NNW 6.9 mph - N/A   Partly Cloudy
11:53 AM 35.1 °F 27.4 °F 19.0 °F 52% 29.54 in 10.0 mi North 10.4 mph - N/A   Mostly Cloudy
12:27 PM 33.8 °F 25.3 °F 19.4 °F 56% 29.54 in 10.0 mi NNW 11.5 mph - N/A   Mostly Cloudy
12:53 PM 34.0 °F 25.0 °F 19.0 °F 54% 29.54 in 10.0 mi NNW 12.7 mph - N/A   Overcast
1:53 PM 35.1 °F 26.9 °F 19.9 °F 54% 29.52 in 9.0 mi North 11.5 mph - 0.00 in Snow Light Snow
2:51 PM 33.8 °F 26.4 °F 21.2 °F 60% 29.53 in 1.8 mi NNW 9.2 mph - 0.00 in Snow Light Snow
2:53 PM 34.0 °F 25.5 °F 23.0 °F 64% 29.55 in 1.8 mi NNW 11.5 mph - 0.00 in Snow Light Snow
3:02 PM 33.8 °F 26.4 °F 24.8 °F 70% 29.54 in 1.8 mi NNW 9.2 mph - 0.00 in Snow Light Snow
3:35 PM 30.2 °F 23.4 °F 26.6 °F 86% 29.53 in 1.8 mi North 6.9 mph - 0.00 in Snow Light Snow
3:39 PM 32.0 °F 25.6 °F 26.6 °F 80% 29.53 in 4.0 mi North 6.9 mph - 0.00 in   Haze
3:53 PM 32.0 °F 25.6 °F 26.1 °F 79% 29.56 in 10.0 mi NNE 6.9 mph - 0.00 in   Overcast
4:53 PM 30.9 °F 24.3 °F 25.0 °F 79% 29.57 in 10.0 mi NNW 6.9 mph - N/A   Mostly Cloudy
5:10 PM 30.2 °F 21.9 °F 24.8 °F 80% 29.51 in 10.0 mi NNW 9.2 mph - N/A   Mostly Cloudy
5:18 PM 30.2 °F 21.3 °F 24.8 °F 80% 29.52 in 10.0 mi NNW 10.4 mph - N/A   Mostly Cloudy
5:53 PM 30.0 °F 19.1 °F 24.1 °F 79% 29.57 in 10.0 mi NNW 15.0 mph - N/A   Overcast
6:28 PM 30.2 °F 20.8 °F 23.0 °F 75% 29.52 in 10.0 mi NNW 11.5 mph - N/A   Overcast
6:53 PM 30.0 °F 20.0 °F 24.1 °F 79% 29.58 in 10.0 mi NNW 12.7 mph - N/A   Overcast
7:53 PM 28.0 °F 15.7 °F 19.0 °F 69% 29.57 in 10.0 mi North 17.3 mph - N/A   Overcast
8:53 PM 25.0 °F 14.8 °F 17.1 °F 72% 29.58 in 10.0 mi North 10.4 mph - N/A   Overcast
9:53 PM 24.1 °F 18.2 °F 17.1 °F 75% 29.59 in 10.0 mi NNW 4.6 mph - N/A   Overcast
10:53 PM 25.0 °F 16.3 °F 17.1 °F 72% 29.57 in 10.0 mi NW 8.1 mph - N/A   Mostly Cloudy
11:53 PM 26.1 °F 15.6 °F 17.1 °F 69% 29.57 in 10.0 mi NW 11.5 mph - N/A   Mostly Cloudy